Main page
METAR-TAF:

METAR-TAF

Airports :

Brownwood Regional Airport

Brownwood, Texas, United States

latitude: 31-48N, longitude: 098-57W, elevation: 1384 ft

Current weather observation

The report was made 35 minutes ago, at 12:55 UTC
Wind 7 mph from the East
Temperature 75°F
Humidity 100%
Pressure 30.16 in. Hg
Visibility: 5 miles
Overcast at a height of 2200 ft

METAR: KBWD 201255Z AUTO 09006KT 5SM OVC022 24/24 A3016 RMK AO1

Time: 08:30 (13:30 UTC)


TAF: missing

Weather observations and forecasts of more than 4000 airports (METAR and TAF reports).

The available stations are represented by yellow and red dots on the map.

Hover mouse over dot to see the name of the station.

Then click to see weather observations and forecasts.

To change the map : click on the green buttons with a black cross to zoom in, on the green button with a dash to zoom out, or on the green arrows for adjacent maps.


METAR-TAF: